NILESAT 201

Last updated on Thu Mar 05 2026 00:02:56 GMT+0000 (Coordinated Universal Time)

1 36830U 10037A 26063.32128137 -.00000070 00000+0 00000+0 0 9991 2 36830 0.0187 178.5671 0003025 173.3179 278.8131 1.00272581 57327
UTC large
Height (km)
Speed (km/s)
/
Latitude / Longitude
Inclination (degrees)
Orbital Period (minutes)
Azimuth
Elevation
Range (km)
Doppler Factor

Next 0 passes for location: London (51.5072 / 0.1276)

Sorry there are no passes over London.